TimeCST,TemperatureF,Dew PointF,Humidity,Sea Level PressureIn,VisibilityMPH,Wind Direction,Wind SpeedMPH,Gust SpeedMPH,PrecipitationIn,Events,Conditions,WindDirDegrees,DateUTC
12:52 AM,51.1,34.0,52,29.72,10.0,NE,8.1,-,N/A,,Overcast,40,2013-02-25 06:52:00
1:52 AM,45.0,37.0,74,29.74,10.0,North,10.4,-,N/A,,Overcast,360,2013-02-25 07:52:00
2:04 AM,42.8,35.6,76,29.76,9.0,North,11.5,-,N/A,Thunderstorm,Overcast,350,2013-02-25 08:04:00
2:22 AM,42.8,37.4,81,29.77,8.0,NNW,12.7,-,0.00,Rain-Thunderstorm,Light Thunderstorms and Rain,330,2013-02-25 08:22:00
2:52 AM,39.9,37.0,89,29.72,3.0,NNE,12.7,-,0.01,Rain,Rain,20,2013-02-25 08:52:00
3:00 AM,39.2,37.4,93,29.70,3.0,NE,17.3,-,0.02,Rain,Light Rain,40,2013-02-25 09:00:00
3:52 AM,41.0,39.2,93,29.65,4.0,NE,10.4,-,N/A,,Overcast,40,2013-02-25 09:52:00
4:52 AM,43.0,37.0,80,29.60,10.0,ENE,16.1,-,0.00,Rain,Light Rain,60,2013-02-25 10:52:00
5:19 AM,42.8,37.4,81,29.60,7.0,NE,21.9,-,0.01,Rain-Thunderstorm,Light Thunderstorms and Rain,50,2013-02-25 11:19:00
5:52 AM,42.1,37.0,82,29.68,4.0,North,10.4,-,0.05,Rain-Thunderstorm,Heavy Thunderstorms and Rain,360,2013-02-25 11:52:00
6:15 AM,41.0,39.2,93,29.68,2.0,North,11.5,-,0.14,Rain-Thunderstorm,Heavy Thunderstorms and Rain,350,2013-02-25 12:15:00
6:30 AM,41.0,37.4,87,29.67,3.0,North,15.0,21.9,0.19,Rain-Thunderstorm,Thunderstorms and Rain,10,2013-02-25 12:30:00
6:45 AM,41.0,37.4,87,29.63,2.5,NNE,17.3,-,0.23,Rain-Thunderstorm,Thunderstorms and Rain,30,2013-02-25 12:45:00
6:49 AM,41.0,37.4,87,29.64,3.0,NNE,16.1,-,0.24,Rain,Rain,30,2013-02-25 12:49:00
6:52 AM,41.0,37.9,89,29.65,3.0,NE,16.1,-,0.24,Rain,Light Rain,40,2013-02-25 12:52:00
7:50 AM,41.0,37.4,87,29.63,3.0,NNE,19.6,27.6,0.06,Rain,Rain,30,2013-02-25 13:50:00
7:52 AM,39.9,37.9,93,29.63,3.0,NNE,17.3,27.6,0.07,Rain,Rain,20,2013-02-25 13:52:00
7:59 AM,39.2,37.4,93,29.61,2.5,NNE,20.7,27.6,0.01,Rain,Rain,20,2013-02-25 13:59:00
8:07 AM,39.2,37.4,93,29.60,3.0,NNE,20.7,-,0.02,Rain,Light Rain,20,2013-02-25 14:07:00
8:52 AM,39.9,37.9,93,29.62,2.5,NE,23.0,28.8,0.09,Rain,Rain,40,2013-02-25 14:52:00
8:59 AM,39.2,37.4,93,29.60,2.0,NNE,23.0,-,0.03,Rain,Rain,30,2013-02-25 14:59:00
9:15 AM,39.2,37.4,93,29.61,4.0,NNE,20.7,24.2,0.05,Rain,Light Rain,20,2013-02-25 15:15:00
9:52 AM,39.9,37.0,89,29.60,4.0,NNE,21.9,28.8,0.10,Rain,Light Rain,30,2013-02-25 15:52:00
10:30 AM,39.2,35.6,87,29.59,2.0,NNE,17.3,26.5,0.03,Rain,Rain,30,2013-02-25 16:30:00
10:39 AM,39.2,35.6,87,29.60,1.8,NNE,16.1,24.2,0.06,Rain,Rain,30,2013-02-25 16:39:00
10:52 AM,39.0,36.0,89,29.60,2.0,NNE,13.8,-,0.09,Rain,Light Rain,20,2013-02-25 16:52:00
11:01 AM,39.2,35.6,87,29.59,3.0,NNE,16.1,-,0.01,Rain,Light Rain,30,2013-02-25 17:01:00
11:52 AM,39.0,36.0,89,29.58,6.0,NNE,15.0,24.2,0.08,Rain,Light Rain,30,2013-02-25 17:52:00
12:52 PM,39.0,36.0,89,29.53,9.0,NNE,16.1,25.3,0.03,Rain,Light Rain,20,2013-02-25 18:52:00
1:52 PM,37.9,36.0,93,29.49,6.0,North,20.7,27.6,0.00,Rain,Light Rain,10,2013-02-25 19:52:00
2:52 PM,37.9,35.1,89,29.50,4.0,North,15.0,-,0.02,Rain,Light Rain,10,2013-02-25 20:52:00
3:04 PM,37.4,35.6,93,29.50,4.0,North,13.8,-,0.00,Rain,Light Rain,360,2013-02-25 21:04:00
3:22 PM,35.6,33.8,93,29.50,2.0,NNW,16.1,-,0.00,Rain,Light Rain,340,2013-02-25 21:22:00
3:35 PM,35.6,33.8,93,29.50,1.8,North,16.1,24.2,0.00,,Overcast,350,2013-02-25 21:35:00
3:52 PM,36.0,34.0,93,29.51,1.8,North,18.4,-,0.00,,Drizzle,350,2013-02-25 21:52:00
4:23 PM,35.6,33.8,93,29.49,2.0,North,19.6,-,0.00,,Drizzle,350,2013-02-25 22:23:00
4:52 PM,35.1,33.1,92,29.51,2.0,NNW,18.4,-,0.00,,Drizzle,340,2013-02-25 22:52:00
5:32 PM,33.8,32.0,93,29.52,1.2,NNW,19.6,-,0.00,Snow,Light Drizzle,340,2013-02-25 23:32:00
5:52 PM,34.0,32.0,92,29.55,1.0,NNW,18.4,25.3,0.00,Snow,Snow,340,2013-02-25 23:52:00
6:52 PM,34.0,32.0,92,29.57,1.5,North,24.2,29.9,0.00,Snow,Light Snow,350,2013-02-26 00:52:00
7:08 PM,33.8,32.0,93,29.56,1.5,North,24.2,34.5,0.00,Snow,Light Snow,350,2013-02-26 01:08:00
7:52 PM,34.0,30.9,89,29.58,2.0,North,29.9,35.7,0.00,Snow,Light Snow,350,2013-02-26 01:52:00
8:52 PM,34.0,30.9,89,29.58,2.0,North,29.9,38.0,0.00,Snow,Light Snow,350,2013-02-26 02:52:00
9:12 PM,33.8,30.2,87,29.58,1.5,NNW,25.3,34.5,0.00,Snow,Light Snow,340,2013-02-26 03:12:00
9:43 PM,33.8,30.2,87,29.59,1.0,NNW,31.1,36.8,0.00,Snow,Snow,340,2013-02-26 03:43:00
9:52 PM,33.1,30.9,92,29.60,1.0,NNW,28.8,38.0,0.00,Snow,Snow,340,2013-02-26 03:52:00
10:52 PM,33.1,30.9,92,29.62,1.2,NNW,29.9,38.0,0.00,Snow,Light Snow,340,2013-02-26 04:52:00
11:05 PM,33.8,30.2,87,29.60,2.0,NNW,29.9,35.7,0.00,Snow,Light Snow,340,2013-02-26 05:05:00
11:52 PM,34.0,30.9,89,29.62,2.5,NNW,31.1,38.0,0.00,Snow,Light Snow,340,2013-02-26 05:52:00